Hourly Data Report for February 14, 2003

SHERBROOKE A
QUEBEC

45°26'00.000" N
71°41'00.000" W
241.40 m
7028124
71610
YSC

Download Data

Hourly Data (February 2003)
Hourly Data Report for February 14, 2003
TIME
LST
Temp Definition
°C
Dew Point Definition
°C
Rel Hum Definition
%
Precip. Amount Definition
mm

Wind Dir Definition
10's deg

Wind Spd Definition
km/h
Visibility Definition
km
Stn Press Definition
kPa
Hmdx Definition


Wind Chill Definition


Weather Definition


00:00 -32.5 -38.0 58   20 6 15.0 98.46   -39  
01:00 -30.9 -36.3 59   24 6 15.0 98.47   -38  
02:00 -31.2 -37.1 56   24 4 15.0 98.49   -36  
03:00 -31.9 -37.8 56   22 4 15.0 98.50   -37  
04:00 -33.1 -38.9 56     0 15.0 98.52      
05:00 -35.7 -41.2 57   10 4 15.0 98.54   -41  
06:00 -35.8 -41.5 56     0 15.0 98.59      
07:00 -36.3 -41.7 57     0 15.0 98.65      
08:00 -32.9 -38.2 59   19 4 24.1 98.74   -38 Mainly Clear
09:00 -26.7 -32.4 59   20 7 24.1 98.77   -33 Mainly Clear
10:00 -23.0 -30.6 50   23 7 24.1 98.75   -29 Mostly Cloudy
11:00 -21.4 -29.9 46   28 22 19.3 98.73   -33 Mostly Cloudy
12:00 -20.5 -29.0 47   27 30 19.3 98.72   -33 Cloudy
13:00 -20.4 -29.1 46   26 35 24.1 98.72   -34 Cloudy
14:00 -19.4 -30.1 38   28 22 24.1 98.73   -30 Mostly Cloudy
15:00 -19.6 -30.2 38   28 19 24.1 98.83   -30 Mainly Clear
16:00 -20.0 -30.0 41   27 20 24.1 98.88   -30 Mainly Clear
17:00 -20.0 -29.9 41   28 24 24.1 98.93   -31 Mainly Clear
18:00 -21.3 -30.6 43   25 9 15.0 99.02   -28  
19:00 -22.5 -31.0 46   22 7 15.0 99.09   -29  
20:00 -24.6 -31.7 52   24 6 15.0 99.14   -30  
21:00 -26.9 -32.9 57     0 15.0 99.20      
22:00 -28.1 -34.4 55   26 6 15.0 99.25   -34  
23:00 -28.4 -34.6 55   28 6 15.0 99.26   -35  

Notes on Data Quality.

Legend

  • E = Estimated
  • M = Missing
  • NA = Not Available*
  • [empty] = Indicates an unobserved value
Date modified: